,,�O�C���x [��],����1,�O�C���x [��],����2,���ԉ��x [��],����3,���Ԏ��x [��],����4,�Q�����x [��],����5,�Q�����x [��],����6,1�K�z�[��(��󒲎�)���x [��],����7,���� [��],����8
2004/3/1,0:00,3,0,59.3,0,23.1,0,36.2,0,19.8,0,,1,22.7,0,10,0
2004/3/1,0:15,2.7,0,58.4,0,23,0,35.8,0,19.8,0,,1,22.6,0,9.3,0
2004/3/1,0:30,2.4,0,57.5,0,22.9,0,35.4,0,19.8,0,,1,22.5,0,8.6,0
2004/3/1,0:45,2.4,0,58.2,0,22.9,0,35.1,0,19.7,0,,1,22.4,0,8.8,0
2004/3/1,1:00,2.3,0,59.4,0,22.8,0,34.8,0,19.7,0,,1,22.4,0,9,0
2004/3/1,1:15,2.3,0,60.2,0,22.8,0,34.4,0,19.6,0,,1,22.3,0,9.2,0
2004/3/1,1:30,2.2,0,59.9,0,22.8,0,34.3,0,19.6,0,,1,22.3,0,9.4,0
2004/3/1,1:45,2.2,0,61.4,0,22.8,0,34.1,0,19.5,0,,1,22.2,0,9.6,0
2004/3/1,2:00,2,0,60.5,0,22.8,0,33.8,0,19.5,0,,1,22.2,0,9.7,0
2004/3/1,2:15,1.9,0,59.4,0,22.8,0,33.2,0,19.4,0,,1,22.2,0,9.9,0
2004/3/1,2:30,1.8,0,60,0,22.7,0,33.2,0,19.4,0,,1,22.2,0,10.2,0
2004/3/1,2:45,1.8,0,57.6,0,22.7,0,32.7,0,19.3,0,,1,22.1,0,10.4,0
2004/3/1,3:00,1.6,0,56.4,0,22.7,0,32.3,0,19.3,0,,1,22.1,0,10.6,0
2004/3/1,3:15,1.4,0,55.6,0,22.7,0,32.1,0,19.2,0,,1,22.1,0,10.8,0
2004/3/1,3:30,1.3,0,56.1,0,22.7,0,31.8,0,19.2,0,,1,22,0,11.1,0
2004/3/1,3:45,1.3,0,56.8,0,22.7,0,31.9,0,19.1,0,,1,22,0,11.3,0
2004/3/1,4:00,1.2,0,55.5,0,22.6,0,31.4,0,19,0,,1,22,0,11.5,0
2004/3/1,4:15,1.1,0,55.6,0,22.6,0,31.5,0,19,0,,1,22,0,11.7,0
2004/3/1,4:30,1,0,56.9,0,22.6,0,31.5,0,18.9,0,,1,21.9,0,11.9,0
2004/3/1,4:45,0.9,0,57.4,0,22.6,0,31.4,0,18.9,0,,1,21.9,0,12.1,0
2004/3/1,5:00,0.8,0,58.4,0,22.7,0,31.2,0,18.8,0,,1,21.9,0,12.3,0
2004/3/1,5:15,0.6,0,58.6,0,22.7,0,31.3,0,18.7,0,,1,21.9,0,12.5,0
2004/3/1,5:30,0.4,0,59,0,22.7,0,31,0,18.7,0,,1,21.9,0,12.7,0
2004/3/1,5:45,0.6,0,59.3,0,22.7,0,30.7,0,18.6,0,,1,21.9,0,12.9,0
2004/3/1,6:00,0.5,0,60.6,0,22.7,0,30.6,0,18.6,0,,1,21.9,0,13.1,0
2004/3/1,6:15,0.4,0,61.8,0,22.7,0,30.6,0,18.5,0,,1,21.9,0,13.3,0
2004/3/1,6:30,0.4,0,63.5,0,22.7,0,30.4,0,18.4,0,,1,21.9,0,13.4,0
2004/3/1,6:45,1.1,0,69.5,0,22.6,0,30.7,0,18.4,0,,1,21.8,0,8.3,0
2004/3/1,7:00,0.8,0,64.4,0,22.6,0,30.6,0,18.6,0,,1,21.8,0,7.2,0
2004/3/1,7:15,1,0,63.6,0,22.7,0,31.8,0,18.6,0,,1,21.9,0,7.2,0
2004/3/1,7:30,1.2,0,61.3,0,22.6,0,31.9,0,18.6,0,,1,21.8,0,7.4,0
2004/3/1,7:45,1.2,0,56,0,22.6,0,31.5,0,18.5,0,,1,21.9,0,7.6,0
2004/3/1,8:00,1.9,0,55.1,0,22.7,0,30.7,0,18.4,0,,1,21.9,0,7.6,0
2004/3/1,8:15,1.7,0,52.4,0,22.7,0,30.5,0,18.3,0,,1,21.8,0,7.8,0
2004/3/1,8:30,2,0,52.4,0,22.7,0,29.4,0,18.2,0,,1,21.8,0,7.5,0
2004/3/1,8:45,2.3,0,52.7,0,22.7,0,29.5,0,18.2,0,,1,21.7,0,7.6,0
2004/3/1,9:00,2.1,0,54.7,0,22.8,0,30,0,18.1,0,,1,21.7,0,7.8,0
2004/3/1,9:15,2.3,0,55.2,0,22.7,0,30.7,0,18.1,0,,1,21.7,0,8,0
2004/3/1,9:30,2.7,0,53.3,0,22.7,0,30.9,0,18.1,0,,1,21.7,0,8.2,0
2004/3/1,9:45,3.1,0,51.1,0,22.7,0,30.7,0,18.1,0,,1,21.7,0,8.4,0
2004/3/1,10:00,3.3,0,51.4,0,22.7,0,30.8,0,18.1,0,,1,21.6,0,8.6,0
2004/3/1,10:15,3.8,0,49.3,0,22.7,0,30.7,0,18.2,0,,1,21.5,0,8.8,0
2004/3/1,10:30,4.4,0,49.7,0,22.6,0,30.8,0,18.2,0,,1,21.4,0,9,0
2004/3/1,10:45,3.9,0,50.8,0,22.6,0,30.5,0,18.2,0,,1,21.4,0,9.2,0
2004/3/1,11:00,4.5,0,49,0,22.6,0,30.5,0,18.1,0,,1,21.4,0,9.4,0
2004/3/1,11:15,4.1,0,47.8,0,22.5,0,30.4,0,18.1,0,,1,21.3,0,9.6,0
2004/3/1,11:30,4.4,0,45.7,0,22.5,0,30.2,0,18.1,0,,1,21.3,0,9.8,0
2004/3/1,11:45,4.6,0,40.7,0,22.5,0,30.1,0,18.1,0,,1,21.3,0,10,0
2004/3/1,12:00,4.6,0,42.6,0,22.4,0,30.2,0,18.1,0,,1,21.3,0,10.3,0
2004/3/1,12:15,4.8,0,41.5,0,22.4,0,30,0,18.1,0,,1,21.2,0,10.5,0
2004/3/1,12:30,4.7,0,41.2,0,22.4,0,29.8,0,18.1,0,,1,21.2,0,10.7,0
2004/3/1,12:45,4.3,0,40.1,0,22.3,0,29.6,0,18,0,,1,21.2,0,10.9,0
2004/3/1,13:00,4.1,0,40.4,0,22.3,0,29.5,0,18,0,,1,21.2,0,11.2,0
2004/3/1,13:15,4.5,0,39.1,0,22.2,0,29.6,0,18,0,,1,21.2,0,11.4,0
2004/3/1,13:30,4.7,0,38.2,0,22.2,0,29.5,0,18,0,,1,21.2,0,11.6,0
2004/3/1,13:45,4.3,0,39.6,0,22.1,0,28.5,0,17.9,0,,1,21.2,0,11.8,0
2004/3/1,14:00,4.1,0,40.4,0,22,0,28,0,17.9,0,,1,21.1,0,12,0
2004/3/1,14:15,4.5,0,41.9,0,22,0,27.9,0,17.8,0,,1,21.1,0,10.9,0
2004/3/1,14:30,3.6,0,42.9,0,22,0,27.4,0,17.8,0,,1,21,0,11,0
2004/3/1,14:45,3.3,0,44.3,0,21.9,0,27.1,0,17.8,0,,1,21,0,11.2,0
2004/3/1,15:00,3.3,0,47.2,0,21.9,0,26.9,0,17.7,0,,1,20.9,0,11.4,0
2004/3/1,15:15,3,0,48.9,0,21.9,0,26.7,0,17.6,0,,1,20.9,0,9.9,0
2004/3/1,15:30,3.4,0,49.5,0,22,0,26.8,0,17.6,0,,1,20.9,0,9,0
2004/3/1,15:45,3.3,0,48.5,0,22,0,27,0,17.5,0,,1,20.9,0,9,0
2004/3/1,16:00,3.3,0,50.5,0,22,0,26.9,0,17.5,0,,1,20.9,0,9.2,0
2004/3/1,16:15,2.5,0,53.6,0,22,0,26.8,0,17.4,0,,1,20.9,0,9.3,0
2004/3/1,16:30,2.3,0,57.5,0,22,0,26.9,0,17.3,0,,1,20.8,0,9.3,0
2004/3/1,16:45,2.5,0,57.2,0,22.1,0,26.8,0,17.3,0,,1,20.9,0,8.4,0
2004/3/1,17:00,1.6,0,60.4,0,22.2,0,27.3,0,17.2,0,,1,21,0,8.5,0
2004/3/1,17:15,1.4,0,59.9,0,22,0,27.5,0,17.1,0,,1,20.9,0,8.7,0
2004/3/1,17:30,1.3,0,66.4,0,22,0,27.3,0,17.1,0,,1,20.9,0,8.9,0
2004/3/1,17:45,1,0,66.9,0,22.1,0,26.8,0,17,0,,1,21,0,9.1,0
2004/3/1,18:00,0.9,0,65.5,0,22.2,0,26.5,0,16.9,0,,1,21,0,9.2,0
2004/3/1,18:15,0.7,0,65,0,22.2,0,26.2,0,16.8,0,,1,21,0,9.4,0
2004/3/1,18:30,0.3,0,64.2,0,22.2,0,25.8,0,16.8,0,,1,20.9,0,9.6,0
2004/3/1,18:45,0.7,0,64.4,0,22.1,0,25.6,0,16.7,0,,1,20.9,0,9.8,0
2004/3/1,19:00,0.3,0,66.4,0,22.2,0,25.7,0,16.7,0,,1,20.9,0,10,0
2004/3/1,19:15,-0.1,0,64.6,0,22.2,0,26.1,0,16.6,0,,1,20.9,0,10.2,0
2004/3/1,19:30,-0.1,0,66.7,0,22.2,0,25.8,0,16.6,0,,1,20.8,0,9.7,0
2004/3/1,19:45,-0.5,0,66.6,0,22.1,0,25.7,0,16.6,0,,1,20.8,0,9.8,0
2004/3/1,20:00,-0.6,0,69.5,0,22.1,0,26,0,16.6,0,,1,20.8,0,9.9,0
2004/3/1,20:15,-1.1,0,74.1,0,22.1,0,26.2,0,16.5,0,,1,20.8,0,10.1,0
2004/3/1,20:30,-1.3,0,74.2,0,22.1,0,26.2,0,16.5,0,,1,20.8,0,10.3,0
2004/3/1,20:45,-1.4,0,76.3,0,22.2,0,26.2,0,16.4,0,,1,20.9,0,10.5,0
2004/3/1,21:00,-1.6,0,77.3,0,22.2,0,26.2,0,16.3,0,,1,20.9,0,10.7,0
2004/3/1,21:15,-1.7,0,80.8,0,22.2,0,26.2,0,16.3,0,,1,20.9,0,10.8,0
2004/3/1,21:30,-1.9,0,82.1,0,22.2,0,26.1,0,16.2,0,,1,20.9,0,9.8,0
2004/3/1,21:45,-1.7,0,81.8,0,22.2,0,26.1,0,16.2,0,,1,20.8,0,9.9,0
2004/3/1,22:00,-1.6,0,81.1,0,22.2,0,26.4,0,16.2,0,,1,20.9,0,10,0
2004/3/1,22:15,-1.5,0,81,0,22.3,0,26.4,0,16.1,0,,1,20.9,0,10.2,0
2004/3/1,22:30,-1.6,0,84.2,0,22.3,0,26.4,0,16.1,0,,1,20.9,0,10.4,0
2004/3/1,22:45,-1.3,0,85,0,22.3,0,26.5,0,16.1,0,,1,20.9,0,10.6,0
2004/3/1,23:00,-0.8,0,88.6,0,22.3,0,27.5,0,16.1,0,,1,21,0,10.7,0
2004/3/1,23:15,-0.9,0,82.9,0,22.1,0,28.5,0,16.1,0,,1,21,0,10.9,0
2004/3/1,23:30,-0.9,0,82.2,0,22.2,0,29.2,0,16.1,0,,1,21.1,0,11.1,0
2004/3/1,23:45,-0.7,0,82,0,22.1,0,29.3,0,16.2,0,,1,21,0,11.3,0
2004/3/2,0:00,-0.9,0,80.9,0,22,0,29.2,0,16.3,0,,1,21,0,11.4,0
2004/3/2,0:15,-0.7,0,82.1,0,21.9,0,29.2,0,16.3,0,,1,20.9,0,11.6,0
2004/3/2,0:30,-0.9,0,78.1,0,21.8,0,29.2,0,16.3,0,,1,20.8,0,11.8,0
2004/3/2,0:45,-0.7,0,76.5,0,21.8,0,29.5,0,16.2,0,,1,20.8,0,10.3,0
2004/3/2,1:00,-0.8,0,77.6,0,21.8,0,29.6,0,16.2,0,,1,20.8,0,10.4,0
2004/3/2,1:15,-1.2,0,80.6,0,21.9,0,29.8,0,16.2,0,,1,20.8,0,10.5,0
2004/3/2,1:30,-1.2,0,72.8,0,21.9,0,30.1,0,16.1,0,,1,20.8,0,10.7,0
2004/3/2,1:45,-1.6,0,80.5,0,21.9,0,30.2,0,16,0,,1,20.8,0,10.9,0
2004/3/2,2:00,-1.8,0,81.7,0,21.9,0,30.4,0,16,0,,1,20.9,0,11,0
2004/3/2,2:15,-1.8,0,80.7,0,21.9,0,30.5,0,16,0,,1,20.9,0,11.2,0
2004/3/2,2:30,-1.9,0,80.3,0,21.9,0,30.6,0,15.9,0,,1,20.9,0,11.4,0
2004/3/2,2:45,-2,0,81.6,0,21.9,0,30.5,0,15.9,0,,1,20.9,0,11.5,0
2004/3/2,3:00,-2,0,82.6,0,21.9,0,31,0,15.9,0,,1,20.9,0,11.7,0
2004/3/2,3:15,-2.2,0,83.9,0,21.9,0,31,0,15.8,0,,1,20.9,0,11.8,0
2004/3/2,3:30,-2.1,0,81.4,0,21.9,0,31.1,0,15.8,0,,1,20.9,0,12,0
2004/3/2,3:45,-2.2,0,83,0,21.9,0,31.2,0,15.8,0,,1,20.9,0,12.2,0
2004/3/2,4:00,-2.4,0,86.7,0,21.9,0,31.2,0,15.7,0,,1,20.9,0,12.3,0
2004/3/2,4:15,-2.3,0,88.2,0,21.9,0,31.2,0,15.7,0,,1,20.9,0,12.5,0
2004/3/2,4:30,-2.4,0,87.7,0,21.9,0,31.2,0,15.7,0,,1,20.9,0,12.6,0
2004/3/2,4:45,-2.2,0,85.6,0,21.9,0,31.2,0,15.6,0,,1,20.9,0,12.8,0
2004/3/2,5:00,-2.1,0,83,0,22,0,31.3,0,15.6,0,,1,20.9,0,12.9,0
2004/3/2,5:15,-2,0,81.5,0,21.9,0,31.4,0,15.6,0,,1,20.9,0,13.1,0
2004/3/2,5:30,-2.1,0,82.5,0,22,0,31.4,0,15.6,0,,1,21,0,13.2,0
2004/3/2,5:45,-2.2,0,84.5,0,22,0,31.3,0,15.5,0,,1,21,0,13.4,0
2004/3/2,6:00,-2.6,0,85,0,22,0,31.3,0,15.5,0,,1,21.1,0,13.5,0
2004/3/2,6:15,-2.7,0,88.7,0,22,0,31.3,0,15.5,0,,1,21.1,0,13.6,0
2004/3/2,6:30,-3,0,91.1,0,22.1,0,31.3,0,15.4,0,,1,21,0,13.8,0
2004/3/2,6:45,-3.1,0,91.8,0,22.1,0,31.3,0,15.5,0,,1,21,0,13.9,0
2004/3/2,7:00,-2.7,0,90,0,22.1,0,31.5,0,15.6,0,,1,21,0,11.5,0
2004/3/2,7:15,-2.5,0,90.3,0,22.1,0,31.7,0,15.9,0,,1,21,0,11.6,0
2004/3/2,7:30,-1.9,0,90.5,0,22.1,0,31.8,0,17.4,0,,1,21,0,7.4,0
2004/3/2,7:45,-1.4,0,78.4,0,22.2,0,32,0,18.4,0,,1,21,0,7.4,0
2004/3/2,8:00,-0.8,0,75.5,0,22.3,0,31.8,0,18.1,0,,1,21.1,0,7.5,0
2004/3/2,8:15,-0.3,0,63.4,0,22.3,0,30,0,17.9,0,,1,21,0,7.7,0
2004/3/2,8:30,0.2,0,57.9,0,22.4,0,28.9,0,17.7,0,,1,21,0,7.9,0
2004/3/2,8:45,0.6,0,58.7,0,22.3,0,28,0,17.6,0,,1,20.9,0,8.1,0
2004/3/2,9:00,1.1,0,57.8,0,22.5,0,29.2,0,17.5,0,,1,21.1,0,8.4,0
2004/3/2,9:15,1.9,0,56.4,0,22.6,0,29.8,0,17.5,0,,1,21.2,0,8.5,0
2004/3/2,9:30,1.7,0,53.7,0,22.9,0,29.1,0,17.5,0,,1,21.2,0,8.7,0
2004/3/2,9:45,2.3,0,51.3,0,22.6,0,29.1,0,17.5,0,,1,21.2,0,8.8,0
2004/3/2,10:00,2.1,0,49.6,0,22.5,0,28.7,0,17.5,0,,1,21.1,0,9,0
2004/3/2,10:15,2.6,0,48.6,0,22.4,0,28.7,0,17.5,0,,1,21,0,8.5,0
2004/3/2,10:30,3,0,47.9,0,22.4,0,28.2,0,17.5,0,,1,20.9,0,8.6,0
2004/3/2,10:45,3.8,0,47.5,0,22.3,0,29.1,0,17.5,0,,1,20.9,0,8.8,0
2004/3/2,11:00,3.4,0,48,0,22.2,0,30.3,0,17.5,0,,1,20.9,0,8.9,0
2004/3/2,11:15,3.3,0,49.3,0,22.3,0,31.1,0,17.5,0,,1,20.8,0,8.9,0
2004/3/2,11:30,3.6,0,45.6,0,22.3,0,31.9,0,17.5,0,,1,20.9,0,9,0
2004/3/2,11:45,4.1,0,46.2,0,22.4,0,32.5,0,17.5,0,,1,20.9,0,9.1,0
2004/3/2,12:00,4.2,0,49.7,0,22.4,0,32.7,0,17.5,0,,1,21,0,9.3,0
2004/3/2,12:15,4.6,0,47.1,0,22.5,0,32.7,0,17.5,0,,1,21,0,9.1,0
2004/3/2,12:30,4.9,0,46.5,0,22.5,0,33,0,17.5,0,,1,21.1,0,9.2,0
2004/3/2,12:45,5,0,46.4,0,22.5,0,33.5,0,17.5,0,,1,21.2,0,9.3,0
2004/3/2,13:00,5,0,47.6,0,22.5,0,33,0,17.4,0,,1,21.2,0,8.9,0
2004/3/2,13:15,5.2,0,46.8,0,22.5,0,32.6,0,17.4,0,,1,21.3,0,9,0
2004/3/2,13:30,4.6,0,51.8,0,22.5,0,32.3,0,17.4,0,,1,21.4,0,9.2,0
2004/3/2,13:45,4.3,0,52.1,0,22.5,0,31.9,0,17.4,0,,1,21.4,0,9.4,0
2004/3/2,14:00,4.2,0,55,0,22.4,0,31.8,0,17.3,0,,1,21.5,0,9.5,0
2004/3/2,14:15,3.9,0,60.9,0,22.4,0,31.5,0,17.3,0,,1,21.5,0,9.7,0
2004/3/2,14:30,4.2,0,63.2,0,22.4,0,31,0,17.2,0,,1,21.4,0,9.9,0
2004/3/2,14:45,4,0,67.1,0,22.4,0,30.8,0,17.2,0,,1,21.5,0,10.1,0
2004/3/2,15:00,3.9,0,67.8,0,22.4,0,30.7,0,17.1,0,,1,21.5,0,9.8,0
2004/3/2,15:15,3.9,0,70.2,0,22.4,0,30.5,0,17.1,0,,1,21.5,0,9.9,0
2004/3/2,15:30,3.5,0,80,0,22.4,0,30.2,0,17,0,,1,21.5,0,10.1,0
2004/3/2,15:45,3.2,0,86.2,0,22.4,0,30.3,0,17,0,,1,21.5,0,10.3,0
2004/3/2,16:00,3.2,0,88.6,0,22.4,0,30.2,0,16.9,0,,1,21.5,0,10.5,0
2004/3/2,16:15,3.5,0,87.7,0,22.4,0,30,0,16.9,0,,1,21.5,0,10.7,0
2004/3/2,16:30,3.4,0,87.4,0,22.4,0,30,0,16.9,0,,1,21.5,0,10.9,0
2004/3/2,16:45,3,0,90.7,0,22.4,0,29.9,0,16.8,0,,1,21.5,0,11.1,0
2004/3/2,17:00,2.5,0,96.3,0,22.4,0,29.9,0,16.8,0,,1,21.5,0,11.3,0
2004/3/2,17:15,2.1,0,99.8,0,22.4,0,30.3,0,16.7,0,,1,21.5,0,10.2,0
2004/3/2,17:30,1.8,0,100,0,22.4,0,30.4,0,16.7,0,,1,21.5,0,10.4,0
2004/3/2,17:45,1.6,0,100,0,22.4,0,30.4,0,16.7,0,,1,21.5,0,10.6,0
2004/3/2,18:00,1.3,0,100,0,22.4,0,30.4,0,16.6,0,,1,21.5,0,10.8,0
2004/3/2,18:15,1,0,100,0,22.5,0,30.5,0,16.6,0,,1,21.6,0,9.6,0
2004/3/2,18:30,1.5,0,100,0,22.6,0,30.6,0,16.6,0,,1,21.6,0,9.7,0
2004/3/2,18:45,1.7,0,96.4,0,22.7,0,30.4,0,16.5,0,,1,21.7,0,9.8,0
2004/3/2,19:00,1.3,0,83.7,0,22.8,0,30.2,0,16.5,0,,1,21.8,0,10,0
2004/3/2,19:15,1.1,0,75.9,0,22.8,0,29.9,0,16.5,0,,1,21.8,0,10.2,0
2004/3/2,19:30,0.9,0,72.2,0,22.9,0,29.8,0,16.4,0,,1,21.8,0,10.4,0
2004/3/2,19:45,0.4,0,73,0,22.8,0,28.9,0,16.4,0,,1,21.8,0,9.7,0
2004/3/2,20:00,0.1,0,75.9,0,22.7,0,28.2,0,16.4,0,,1,21.6,0,9.8,0
2004/3/2,20:15,-0.1,0,80.4,0,22.6,0,28.1,0,16.3,0,,1,21.7,0,8.8,0
2004/3/2,20:30,-0.7,0,90.8,0,22.4,0,28,0,16.3,0,,1,21.7,0,8.9,0
2004/3/2,20:45,-0.5,0,93.5,0,22.2,0,28.3,0,16.3,0,,1,21.6,0,8.4,0
2004/3/2,21:00,-0.7,0,88.8,0,22.3,0,28.7,0,16.3,0,,1,21.6,0,7.3,0
2004/3/2,21:15,-0.7,0,85.4,0,22.4,0,28.4,0,16.3,0,,1,21.5,0,7.4,0
2004/3/2,21:30,-0.6,0,82.3,0,22.2,0,28,0,16.2,0,,1,21.5,0,7.6,0
2004/3/2,21:45,-0.6,0,78.3,0,22.2,0,28,0,16.2,0,,1,21.5,0,7.8,0
2004/3/2,22:00,-0.4,0,69.8,0,22.2,0,28.2,0,16.1,0,,1,21.5,0,8,0
2004/3/2,22:15,-0.5,0,69,0,22.4,0,28.5,0,16.1,0,,1,21.5,0,8.2,0
2004/3/2,22:30,-0.5,0,68.1,0,22.4,0,29,0,16,0,,1,21.6,0,8.4,0
2004/3/2,22:45,-0.7,0,68.3,0,22.4,0,30.1,0,16,0,,1,21.6,0,8.6,0
2004/3/2,23:00,-0.6,0,69.1,0,22.5,0,29.9,0,16,0,,1,21.8,0,8.8,0
2004/3/2,23:15,-0.9,0,68.9,0,22.6,0,30.8,0,16,0,,1,21.9,0,8.9,0
2004/3/2,23:30,-0.6,0,59.5,0,22.7,0,31.2,0,16,0,,1,21.9,0,9.1,0
2004/3/2,23:45,-0.9,0,74.4,0,22.7,0,31.8,0,16,0,,1,22,0,9.3,0
2004/3/3,0:00,-1.6,0,78.8,0,22.9,0,32.7,0,16,0,,1,22.1,0,9.5,0
2004/3/3,0:15,-1.6,0,78.7,0,22.9,0,31.8,0,16,0,,1,22.2,0,9.7,0
2004/3/3,0:30,-1.8,0,80.5,0,22.9,0,31.7,0,16,0,,1,22.2,0,9.3,0
2004/3/3,0:45,-1.6,0,80.5,0,22.9,0,31.8,0,16,0,,1,22.3,0,9.5,0
2004/3/3,1:00,-1.8,0,80.3,0,22.9,0,31.7,0,16,0,,1,22.3,0,9.6,0
2004/3/3,1:15,-1.4,0,69,0,22.9,0,31.5,0,16,0,,1,22.4,0,9.8,0
2004/3/3,1:30,-1.4,0,66.7,0,22.9,0,31.4,0,16,0,,1,22.4,0,9.9,0
2004/3/3,1:45,-1.9,0,78.1,0,23,0,31.4,0,15.9,0,,1,22.4,0,10.1,0
2004/3/3,2:00,-2.1,0,78.3,0,23,0,31.2,0,15.9,0,,1,22.4,0,10.3,0
2004/3/3,2:15,-2.3,0,81.4,0,23,0,31.3,0,15.9,0,,1,22.4,0,10.5,0
2004/3/3,2:30,-2.5,0,79.7,0,23,0,31.4,0,15.9,0,,1,22.4,0,10.7,0
2004/3/3,2:45,-2.4,0,80.5,0,23,0,31.2,0,15.9,0,,1,22.4,0,10.9,0
2004/3/3,3:00,-2.4,0,80.8,0,23,0,31.2,0,15.8,0,,1,22.4,0,11.1,0
2004/3/3,3:15,-2.2,0,77.6,0,23,0,31.1,0,15.8,0,,1,22.4,0,11.3,0
2004/3/3,3:30,-2.4,0,76.6,0,23,0,31.1,0,15.8,0,,1,22.3,0,11.5,0
2004/3/3,3:45,-1.5,0,63.9,0,23,0,31.1,0,15.7,0,,1,22.3,0,11.6,0
2004/3/3,4:00,-1.6,0,64.1,0,23,0,30.9,0,15.7,0,,1,22.3,0,11.8,0
2004/3/3,4:15,-1.7,0,65,0,23,0,30.9,0,15.7,0,,1,22.3,0,12,0
2004/3/3,4:30,-1.6,0,65.9,0,23,0,30.9,0,15.7,0,,1,22.3,0,12.2,0
2004/3/3,4:45,-1.9,0,68,0,23,0,30.8,0,15.6,0,,1,22.2,0,12.3,0
2004/3/3,5:00,-2.3,0,70.7,0,23,0,30.8,0,15.6,0,,1,22.2,0,12.5,0
2004/3/3,5:15,-2.3,0,74.3,0,23,0,31,0,15.6,0,,1,22.2,0,12.7,0
2004/3/3,5:30,-1.9,0,68.6,0,23,0,30.9,0,15.5,0,,1,22.2,0,12.8,0
2004/3/3,5:45,-1.9,0,67.8,0,23,0,30.8,0,15.5,0,,1,22.2,0,13,0
2004/3/3,6:00,-2,0,68.8,0,23,0,30.8,0,15.5,0,,1,22.2,0,13.2,0
2004/3/3,6:15,-2,0,67.2,0,23,0,30.9,0,15.5,0,,1,22.1,0,13.3,0
2004/3/3,6:30,-1.9,0,65.8,0,22.9,0,30.8,0,15.4,0,,1,22.1,0,11.4,0
2004/3/3,6:45,-1.7,0,65,0,22.9,0,30.9,0,15.5,0,,1,22.1,0,11.5,0
2004/3/3,7:00,-1.5,0,63.5,0,23,0,31.1,0,15.6,0,,1,22.1,0,11.6,0
2004/3/3,7:15,-1.2,0,62.7,0,22.7,0,30,0,16.1,0,,1,21.9,0,11.8,0
2004/3/3,7:30,-0.9,0,61.5,0,22.6,0,29.8,0,18.4,0,,1,21.8,0,9.7,0
2004/3/3,7:45,-0.7,0,59.9,0,22.4,0,29.4,0,19.6,0,,1,21.8,0,7.8,0
2004/3/3,8:00,-0.4,0,58.1,0,22.4,0,29.1,0,19.3,0,,1,21.7,0,8.3,0
2004/3/3,8:15,0,0,56.8,0,22.4,0,28.8,0,19.1,0,,1,21.6,0,7.4,0
2004/3/3,8:30,0,0,55.1,0,22.4,0,28.9,0,19,0,,1,21.6,0,7.6,0
2004/3/3,8:45,0.1,0,55.5,0,22.4,0,28.9,0,18.9,0,,1,21.6,0,7.8,0
2004/3/3,9:00,0.3,0,56,0,22.6,0,28.9,0,19,0,,1,21.5,0,8,0
2004/3/3,9:15,0.5,0,54.7,0,22.6,0,28.5,0,19,0,,1,21.5,0,7.7,0
2004/3/3,9:30,0.9,0,52.7,0,22.7,0,28.4,0,19.1,0,,1,21.5,0,7.8,0
2004/3/3,9:45,0.8,0,52,0,22.7,0,28,0,19.2,0,,1,21.4,0,8,0
2004/3/3,10:00,1.4,0,52.3,0,22.6,0,27.6,0,19.2,0,,1,21.4,0,7.2,0
2004/3/3,10:15,1.6,0,49.7,0,22.6,0,28.2,0,19.3,0,,1,21.2,0,7.4,0
2004/3/3,10:30,2.5,0,45.9,0,22.6,0,28.1,0,19.3,0,,1,21.1,0,7.6,0
2004/3/3,10:45,2.9,0,44.4,0,22.6,0,27.4,0,19.4,0,,1,21,0,7.6,0
2004/3/3,11:00,2.9,0,44.2,0,22.5,0,26.9,0,19.4,0,,1,21,0,7.8,0
2004/3/3,11:15,3.1,0,42.9,0,22.5,0,26.6,0,19.4,0,,1,21,0,7.9,0
2004/3/3,11:30,2.7,0,48.7,0,22.5,0,26.4,0,19.4,0,,1,20.9,0,8.1,0
2004/3/3,11:45,2.8,0,49.4,0,22.4,0,26.4,0,19.4,0,,1,20.8,0,8.3,0
2004/3/3,12:00,3.2,0,48.6,0,22.4,0,26.2,0,19.4,0,,1,20.8,0,8.5,0
2004/3/3,12:15,3.4,0,50,0,22.4,0,26.2,0,19.4,0,,1,20.7,0,8.8,0
2004/3/3,12:30,3.2,0,39.5,0,22.4,0,26.7,0,19.4,0,,1,20.7,0,8.9,0
2004/3/3,12:45,3.6,0,38.4,0,22.4,0,26.9,0,19.4,0,,1,20.7,0,9,0
2004/3/3,13:00,3.2,0,38.8,0,22.2,0,26.8,0,19.4,0,,1,20.8,0,9.2,0
2004/3/3,13:15,3.7,0,45.2,0,22.2,0,26.8,0,19.4,0,,1,20.8,0,9.4,0
2004/3/3,13:30,2.3,0,52.4,0,22.2,0,26.5,0,19.4,0,,1,20.8,0,9.5,0
2004/3/3,13:45,2.5,0,48.7,0,22,0,26.2,0,19.4,0,,1,20.7,0,9.7,0
2004/3/3,14:00,2.4,0,49,0,21.9,0,25.7,0,19.3,0,,1,20.7,0,9.9,0
2004/3/3,14:15,1.9,0,52.7,0,21.8,0,25.6,0,19.3,0,,1,20.7,0,10,0
2004/3/3,14:30,1.8,0,53,0,21.7,0,25.8,0,19.3,0,,1,20.6,0,10.3,0
2004/3/3,14:45,2,0,52.7,0,21.7,0,25.8,0,19.3,0,,1,20.7,0,10.5,0
2004/3/3,15:00,2.1,0,50.9,0,21.8,0,25.8,0,19.2,0,,1,20.7,0,9.5,0
2004/3/3,15:15,1.9,0,52.8,0,21.7,0,26.1,0,19.2,0,,1,20.7,0,9.6,0
2004/3/3,15:30,2.2,0,51.7,0,21.7,0,25.8,0,19.2,0,,1,20.7,0,9.8,0
2004/3/3,15:45,2.1,0,52.2,0,21.8,0,25.4,0,19.2,0,,1,20.8,0,9.1,0
2004/3/3,16:00,2,0,51.4,0,21.9,0,24.9,0,19.1,0,,1,20.9,0,9.2,0
2004/3/3,16:15,2,0,52.7,0,21.9,0,24.6,0,19,0,,1,21,0,9.3,0
2004/3/3,16:30,1.4,0,55.8,0,22,0,24.4,0,18.9,0,,1,21.1,0,9.5,0
2004/3/3,16:45,0.8,0,58.5,0,21.9,0,24.3,0,18.8,0,,1,21,0,7.8,0
2004/3/3,17:00,0.5,0,59.4,0,22,0,24.2,0,18.7,0,,1,21.1,0,8,0
2004/3/3,17:15,0,0,61.1,0,22,0,24.1,0,18.6,0,,1,21.1,0,8.1,0
2004/3/3,17:30,-0.2,0,62.8,0,22,0,24,0,18.5,0,,1,21.1,0,8.3,0
2004/3/3,17:45,-0.2,0,64.1,0,22,0,23.8,0,18.4,0,,1,21,0,8.5,0
2004/3/3,18:00,-0.2,0,66.9,0,22,0,23.6,0,18.3,0,,1,21,0,8.7,0
2004/3/3,18:15,-0.5,0,68.1,0,22,0,23.6,0,18.2,0,,1,21,0,8.9,0
2004/3/3,18:30,-0.4,0,67.5,0,22,0,23.6,0,18.1,0,,1,21,0,9.1,0
2004/3/3,18:45,-0.3,0,67.9,0,22.1,0,23.5,0,18,0,,1,21,0,9.3,0
2004/3/3,19:00,-0.4,0,66.5,0,22,0,23.4,0,17.8,0,,1,20.9,0,9.5,0
2004/3/3,19:15,-0.4,0,66,0,22,0,23.3,0,17.7,0,,1,20.9,0,10.6,0
2004/3/3,19:30,-0.6,0,70.3,0,22,0,23.2,0,17.6,0,,1,20.9,0,9.3,0
2004/3/3,19:45,-0.5,0,67.5,0,22,0,23.9,0,17.5,0,,1,21,0,9.5,0
2004/3/3,20:00,-1,0,67.1,0,21.9,0,23.5,0,17.4,0,,1,21,0,9.6,0
2004/3/3,20:15,-1.3,0,68.2,0,21.9,0,23.3,0,17.3,0,,1,20.9,0,9.8,0
2004/3/3,20:30,-1.4,0,68.7,0,21.8,0,23.2,0,17.2,0,,1,20.9,0,9.3,0
2004/3/3,20:45,-1.5,0,76.1,0,21.6,0,23.1,0,17.1,0,,1,20.8,0,9.3,0
2004/3/3,21:00,-1.2,0,70.7,0,21.5,0,23,0,17,0,,1,20.8,0,7.9,0
2004/3/3,21:15,-1,0,68.7,0,21.4,0,23.2,0,16.9,0,,1,20.8,0,8,0
2004/3/3,21:30,-1,0,74.2,0,21.5,0,23.7,0,16.8,0,,1,20.8,0,8.2,0
2004/3/3,21:45,-0.4,0,78.3,0,21.7,0,24.3,0,16.7,0,,1,20.8,0,8.4,0
2004/3/3,22:00,-1.1,0,71.2,0,21.9,0,25,0,16.6,0,,1,20.8,0,8.5,0
2004/3/3,22:15,-1.4,0,75.1,0,22,0,25.3,0,16.6,0,,1,20.9,0,8.7,0
2004/3/3,22:30,-1.3,0,76.7,0,22.1,0,25.3,0,16.5,0,,1,21,0,8.8,0
2004/3/3,22:45,-1.4,0,76.1,0,22.1,0,25.4,0,16.5,0,,1,21.1,0,8.9,0
2004/3/3,23:00,-1.2,0,76.5,0,22,0,29.1,0,16.5,0,,1,21,0,9.1,0
2004/3/3,23:15,-1,0,72.4,0,22,0,31.1,0,16.5,0,,1,21,0,7.8,0
2004/3/3,23:30,-0.8,0,69.8,0,21.9,0,32.1,0,16.4,0,,1,21.1,0,7.9,0
2004/3/3,23:45,-1.1,0,77.6,0,21.9,0,32.9,0,16.4,0,,1,21.1,0,8.1,0
2004/3/4,0:00,-1.4,0,85.4,0,22,0,32.6,0,16.4,0,,1,21.1,0,8.3,0
2004/3/4,0:15,-1.5,0,91.8,0,22,0,32.3,0,16.4,0,,1,21.1,0,8.5,0
2004/3/4,0:30,-1.8,0,98.3,0,22,0,32.1,0,16.4,0,,1,21.1,0,8.6,0
2004/3/4,0:45,-2.1,0,99.9,0,22.1,0,31.8,0,16.4,0,,1,21.1,0,8.8,0
2004/3/4,1:00,-2.1,0,100,0,22.1,0,31.7,0,16.4,0,,1,21.2,0,9,0
2004/3/4,1:15,-2,0,100,0,22.1,0,31.6,0,16.4,0,,1,21.2,0,9.2,0
2004/3/4,1:30,-1.7,0,100,0,22.1,0,31.3,0,16.4,0,,1,21.3,0,9.4,0
2004/3/4,1:45,-1.7,0,100,0,22.2,0,31.2,0,16.4,0,,1,21.3,0,9.6,0
2004/3/4,2:00,-1.8,0,100,0,22.2,0,30.9,0,16.4,0,,1,21.3,0,9.7,0
2004/3/4,2:15,-1.6,0,100,0,22.2,0,30.6,0,16.4,0,,1,21.4,0,9.9,0
2004/3/4,2:30,-1.6,0,100,0,22.2,0,30.4,0,16.4,0,,1,21.4,0,10.1,0
2004/3/4,2:45,-1.7,0,100,0,22.3,0,30.1,0,16.3,0,,1,21.4,0,10.3,0
2004/3/4,3:00,-1.6,0,100,0,22.3,0,29.9,0,16.3,0,,1,21.4,0,10.5,0
2004/3/4,3:15,-1.5,0,100,0,22.3,0,29.7,0,16.3,0,,1,21.4,0,10.7,0
2004/3/4,3:30,-1.5,0,100,0,22.3,0,29.5,0,16.2,0,,1,21.4,0,10.9,0
2004/3/4,3:45,-1.6,0,100,0,22.3,0,29.4,0,16.2,0,,1,21.4,0,11.1,0
2004/3/4,4:00,-1.6,0,100,0,22.4,0,29.2,0,16.2,0,,1,21.4,0,11.3,0
2004/3/4,4:15,-1.8,0,100,0,22.4,0,29.1,0,16.1,0,,1,21.4,0,11.5,0
2004/3/4,4:30,-2.1,0,100,0,22.4,0,29,0,16.1,0,,1,21.4,0,11.7,0
2004/3/4,4:45,-2.1,0,100,0,22.4,0,28.8,0,16.1,0,,1,21.5,0,11.9,0
2004/3/4,5:00,-1.9,0,100,0,22.4,0,28.8,0,16,0,,1,21.4,0,12.1,0
2004/3/4,5:15,-1.8,0,100,0,22.4,0,28.6,0,16,0,,1,21.4,0,12.2,0
2004/3/4,5:30,-1.9,0,100,0,22.4,0,28.5,0,16,0,,1,21.5,0,12.4,0
2004/3/4,5:45,-1.9,0,100,0,22.5,0,28.5,0,15.9,0,,1,21.4,0,12.6,0
2004/3/4,6:00,-1.9,0,100,0,22.5,0,28.4,0,15.9,0,,1,21.5,0,12.7,0
2004/3/4,6:15,-2,0,100,0,22.4,0,28.4,0,15.9,0,,1,21.5,0,12.9,0
2004/3/4,6:30,-1.7,0,100,0,22.5,0,28.2,0,15.8,0,,1,21.5,0,13.1,0
2004/3/4,6:45,-1.6,0,100,0,22.4,0,28.1,0,15.8,0,,1,21.5,0,13.2,0
2004/3/4,7:00,-1.6,0,100,0,22.3,0,28,0,15.9,0,,1,21.4,0,7.9,0
2004/3/4,7:15,-1.4,0,100,0,22.3,0,29,0,16.1,0,,1,21.3,0,8,0
2004/3/4,7:30,-1.7,0,100,0,22.4,0,29,0,16.1,0,,1,21.4,0,8.2,0
2004/3/4,7:45,-1.5,0,100,0,22.4,0,29,0,16.1,0,,1,21.4,0,8.4,0
2004/3/4,8:00,-1.4,0,100,0,22.4,0,29.2,0,16,0,,1,21.5,0,8.6,0
2004/3/4,8:15,-1.3,0,100,0,22.4,0,29.4,0,16,0,,1,21.5,0,8.3,0
2004/3/4,8:30,-0.9,0,100,0,22.2,0,28.7,0,16,0,,1,21.4,0,8.4,0
2004/3/4,8:45,-0.8,0,100,0,22.1,0,28.4,0,15.9,0,,1,21.4,0,8.6,0
2004/3/4,9:00,-0.5,0,100,0,22.1,0,28.1,0,15.9,0,,1,21.3,0,8.8,0
2004/3/4,9:15,-0.8,0,100,0,22,0,27.8,0,15.8,0,,1,21.3,0,8.3,0
2004/3/4,9:30,-0.2,0,100,0,22,0,27.8,0,15.8,0,,1,21.2,0,8.4,0
2004/3/4,9:45,-0.1,0,100,0,22.1,0,28,0,15.7,0,,1,21.2,0,8.5,0
2004/3/4,10:00,0.3,0,100,0,22.2,0,28.3,0,15.7,0,,1,21.2,0,8.7,0
2004/3/4,10:15,0.9,0,99.8,0,22.2,0,28.5,0,15.7,0,,1,21.3,0,8.8,0
2004/3/4,10:30,1.1,0,99.2,0,22.3,0,28.6,0,15.7,0,,1,21.3,0,9,0
2004/3/4,10:45,1.2,0,100,0,22.3,0,28.5,0,15.6,0,,1,21.3,0,9.2,0
2004/3/4,11:00,2.1,0,97.6,0,22.4,0,28.4,0,15.6,0,,1,21.4,0,9.4,0
2004/3/4,11:15,3,0,98.1,0,22.5,0,28.5,0,15.6,0,,1,21.4,0,9.5,0
2004/3/4,11:30,3.4,0,93.5,0,22.5,0,28.5,0,15.7,0,,1,21.5,0,9.7,0
2004/3/4,11:45,2.7,0,95.6,0,22.6,0,28.4,0,15.7,0,,1,21.6,0,9.9,0
2004/3/4,12:00,3,0,95.9,0,22.6,0,28.5,0,15.7,0,,1,21.6,0,10.1,0
2004/3/4,12:15,3.3,0,97.7,0,22.8,0,28.5,0,15.8,0,,1,21.7,0,10.3,0
2004/3/4,12:30,4.1,0,92.8,0,22.9,0,28.4,0,15.9,0,,1,21.9,0,10.5,0
2004/3/4,12:45,3.7,0,94.2,0,23,0,28.5,0,15.9,0,,1,22.1,0,10.7,0
2004/3/4,13:00,3.6,0,96,0,23,0,29.7,0,15.9,0,,1,22.1,0,7.5,0
2004/3/4,13:15,3.6,0,95.6,0,23,0,30.1,0,15.9,0,,1,22.1,0,7.6,0
2004/3/4,13:30,3.2,0,93.5,0,23.1,0,30.6,0,15.9,0,,1,22.1,0,7.8,0
2004/3/4,13:45,3.3,0,94.1,0,23.1,0,30.5,0,15.9,0,,1,22.1,0,8,0
2004/3/4,14:00,4,0,84.6,0,23.1,0,29.8,0,15.9,0,,1,22.2,0,8.2,0
2004/3/4,14:15,4.4,0,74.6,0,23.1,0,29.3,0,16,0,,1,22.2,0,8.1,0
2004/3/4,14:30,3.6,0,72.5,0,23.1,0,28.6,0,16,0,,1,22.1,0,8.3,0
2004/3/4,14:45,3.5,0,73.3,0,23,0,27.9,0,16,0,,1,21.9,0,8.5,0
2004/3/4,15:00,3.3,0,70.2,0,23,0,27.3,0,15.9,0,,1,21.8,0,8.7,0
2004/3/4,15:15,2.9,0,69.5,0,22.9,0,26.8,0,15.9,0,,1,21.8,0,8.8,0
2004/3/4,15:30,2.7,0,70.8,0,22.8,0,26.8,0,15.9,0,,1,21.8,0,8,0
2004/3/4,15:45,2.3,0,68.2,0,22.8,0,26.8,0,15.9,0,,1,21.8,0,8.1,0
2004/3/4,16:00,2.3,0,64.7,0,22.8,0,26.5,0,15.9,0,,1,21.8,0,8.3,0
2004/3/4,16:15,2.2,0,61.6,0,22.7,0,26,0,15.9,0,,1,21.7,0,8.2,0
2004/3/4,16:30,2,0,49.9,0,22.7,0,25.6,0,15.9,0,,1,21.6,0,8.4,0
2004/3/4,16:45,2,0,48.2,0,22.7,0,25.2,0,15.9,0,,1,21.6,0,8.6,0
2004/3/4,17:00,1.8,0,51,0,22.6,0,24.9,0,15.8,0,,1,21.5,0,8.7,0
2004/3/4,17:15,1.5,0,56.5,0,22.5,0,25.1,0,15.8,0,,1,21.5,0,8,0
2004/3/4,17:30,1.2,0,58.4,0,22.4,0,25.2,0,15.8,0,,1,21.4,0,7.6,0
2004/3/4,17:45,0.9,0,58.8,0,22.4,0,25,0,15.7,0,,1,21.4,0,7.7,0
2004/3/4,18:00,0.7,0,61.4,0,22.3,0,25,0,15.7,0,,1,21.3,0,7.9,0
2004/3/4,18:15,0.5,0,57.5,0,22.2,0,24.9,0,15.6,0,,1,21.2,0,8,0
2004/3/4,18:30,0.3,0,56.7,0,22.3,0,24.7,0,15.6,0,,1,21.2,0,8.2,0
2004/3/4,18:45,0.2,0,55,0,22.2,0,24.6,0,15.5,0,,1,21.2,0,8.4,0
2004/3/4,19:00,0.1,0,52.1,0,22.2,0,24.5,0,15.4,0,,1,21.1,0,8.6,0
2004/3/4,19:15,0.4,0,52.3,0,22,0,24.4,0,15.4,0,,1,21.1,0,8.5,0
2004/3/4,19:30,0,0,53.9,0,22,0,24.4,0,15.3,0,,1,21,0,7.7,0
2004/3/4,19:45,-0.2,0,57.2,0,21.9,0,24.3,0,15.2,0,,1,21,0,7.8,0